PU1CMA-13 Weather Reports


time (UTC)temp
C
wind
direction
speed
KPH
gust
KPH
rain 1hr
cm
rain 24hr
cm
rain mn
cm
humidity
%
barometer
mb
20260505111613 -17 0.0 0.0 0.00 0.00 0.00 57 1017.4
20260505110153 -17 0.0 0.0 0.00 0.00 0.00 57 1017.4
20260505101845 -17 0.0 0.0 0.00 0.00 0.00 65 1017.1
20260505100425 -17 0.0 0.0 0.00 0.00 0.00 65 1017.1
20260505095005 -17 0.0 0.0 0.00 0.00 0.00 66 1017.1
20260505093545 -17 0.0 0.0 0.00 0.00 0.00 66 1017.0
20260505092125 -17 0.0 0.0 0.00 0.00 0.00 67 1016.9
20260505090706 -17 0.0 0.0 0.00 0.00 0.00 67 1016.8
20260505085254 -17 0.0 0.0 0.00 0.00 0.00 67 1016.6
20260505083828 -17 0.0 0.0 0.00 0.00 0.00 66 1016.4
20260505082407 -17 0.0 0.0 0.00 0.00 0.00 66 1016.3
20260505080948 -17 0.0 0.0 0.00 0.00 0.00 66 1016.2
20260505075528 -17 0.0 0.0 0.00 0.00 0.00 65 1016.1
20260505074106 -17 0.0 0.0 0.00 0.00 0.00 65 1016.1
20260505072650 -17 0.0 0.0 0.00 0.00 0.00 66 1016.0
20260505071235 -17 0.0 0.0 0.00 0.00 0.00 65 1016.0
20260505065824 -17 0.0 0.0 0.00 0.00 0.00 66 1016.0
20260505064402 -17 0.0 0.0 0.00 0.00 0.00 66 1016.1
20260505062937 -17 0.0 0.0 0.00 0.00 0.00 66 1016.2
20260505061525 -17 0.0 0.0 0.00 0.00 0.00 65 1016.2
20260505060103 -17 0.0 0.0 0.00 0.00 0.00 66 1016.3
20260505054640 -17 0.0 0.0 0.00 0.00 0.00 65 1016.3
20260505053223 -17 0.0 0.0 0.00 0.00 0.00 65 1016.3
20260505051804 -17 0.0 0.0 0.00 0.00 0.00 64 1016.3
20260505050344 -17 0.0 0.0 0.00 0.00 0.00 64 1016.4
20260505040626 -17 0.0 0.0 0.00 0.00 0.00 63 1016.8
20260505035207 -17 0.0 0.0 0.00 0.00 0.00 63 1016.9
20260505033749 -17 0.0 0.0 0.00 0.00 0.00 63 1017.0
20260505032329 -17 0.0 0.0 0.00 0.00 0.00 63 1017.2
20260505030911 -17 0.0 0.0 0.00 0.00 0.00 63 1017.2
20260505025450 -17 0.0 0.0 0.00 0.00 0.00 63 1017.2
20260505024041 -17 0.0 0.0 0.00 0.00 0.00 63 1017.4
20260505022614 -17 0.0 0.0 0.00 0.00 0.00 63 1017.5
20260505015735 -17 0.0 0.0 0.00 0.00 0.00 63 1017.6
20260505014324 -17 0.0 0.0 0.00 0.00 0.00 64 1017.6
20260505012907 -17 0.0 0.0 0.00 0.00 0.00 64 1017.6
20260505011450 -17 0.0 0.0 0.00 0.00 0.00 65 1017.7
20260505010033 -17 0.0 0.0 0.00 0.00 0.00 65 1017.8
20260505004611 -17 0.0 0.0 0.00 0.00 0.00 65 1017.7
20260505003153 -17 0.0 0.0 0.00 0.00 0.00 65 1017.7
20260505001738 -17 0.0 0.0 0.00 0.00 0.00 64 1017.7
20260504234910 -17 0.0 0.0 0.00 0.00 0.00 65 1017.7
20260504233455 -17 0.0 0.0 0.00 0.00 0.00 65 1017.6
20260504232028 -17 0.0 0.0 0.00 0.00 0.00 65 1017.6
20260504230616 -17 0.0 0.0 0.00 0.00 0.00 64 1017.5
20260504225158 -17 0.0 0.0 0.00 0.00 0.00 64 1017.4
20260504223742 -17 0.0 0.0 0.00 0.00 0.00 63 1017.3
20260504222315 -17 0.0 0.0 0.00 0.00 0.00 62 1017.0
20260504220856 -17 0.0 0.0 0.00 0.00 0.00 62 1016.9
20260504215444 -17 0.0 0.0 0.00 0.00 0.00 62 1016.7
20260504214022 -17 0.0 0.0 0.00 0.00 0.00 62 1016.5
20260504212608 -17 0.0 0.0 0.00 0.00 0.00 63 1016.2
20260504211148 -17 0.0 0.0 0.00 0.00 0.00 63 1016.1
20260504205730 -17 0.0 0.0 0.00 0.00 0.00 62 1016.0
20260504204306 -17 0.0 0.0 0.00 0.00 0.00 62 1015.9
20260504202854 -17 0.0 0.0 0.00 0.00 0.00 61 1015.7
20260504201435 -17 0.0 0.0 0.00 0.00 0.00 61 1015.7
20260504200013 -17 0.0 0.0 0.00 0.00 0.00 61 1015.7
20260504194557 -17 0.0 0.0 0.00 0.00 0.00 61 1015.6
20260504193136 -17 0.0 0.0 0.00 0.00 0.00 60 1015.6
20260504191723 -17 0.0 0.0 0.00 0.00 0.00 61 1015.5
20260504190257 -17 0.0 0.0 0.00 0.00 0.00 61 1015.3
20260504184846 -17 0.0 0.0 0.00 0.00 0.00 61 1015.3
20260504183430 -17 0.0 0.0 0.00 0.00 0.00 61 1015.2
20260504182004 -17 0.0 0.0 0.00 0.00 0.00 63 1015.1
20260504180542 -17 0.0 0.0 0.00 0.00 0.00 62 1015.2
20260504173649 -17 0.0 0.0 0.00 0.00 0.00 63 1015.3
20260504170805 -17 0.0 0.0 0.00 0.00 0.00 61 1015.5
20260504140126 -17 0.0 0.0 0.00 0.00 0.00 67 1017.0
20260504130403 -17 0.0 0.0 0.00 0.00 0.00 62 1017.4